User: anonymous   Login
Location: Friaudour
(46.0460°N, 1.2873°E)
Time: 23:49:16
(UTC+00:00)
Language:

Spot 4 Rocket - Orbit

View from above orbital plane
View from above orbital plane
View from above satellite
View from above satellite

Ground track
Ground track

The orbit data is extracted from the following two-line orbital elements,

1 25261U 98017B   20271.82081184  .00000090  00000-0  48367-4 0  9996
2 25261  98.6995 229.8775 0003920 136.4639 223.6855 14.33844380176766
Epoch (UTC): 27 September 2020 19:41:58
Eccentricity: 0.0003920
inclination: 98.6995°
perigee height: 776 km
apogee height: 782 km
right ascension of ascending node: 229.8775°
argument of perigee: 136.4639°
revolutions per day: 14.33844380
mean anomaly at epoch: 223.6855°
orbit number at epoch: 17676

The dashed part of the orbit path shows where the satellite is in the earth's shadow,  

DLR